Location: Unspecified
(43.8044°N, 11.0278°E)
Time: 04:57:23
(UTC+01:00)

Cosmos 1674 - Visible Passes

Search period start: 22 January 2018 00:00
Search period end: 01 February 2018 00:00
Orbit: 496 x 522 km, 82.5° (Epoch: 21 January)

Date Brightness Start Highest point End Pass type
(mag) Time Alt. Az. Time Alt. Az. Time Alt. Az.
23 Jan 5.8 18:32:46 10° W 18:33:57 11° WNW 18:35:07 10° NW visible
24 Jan 5.6 18:14:49 10° WSW 18:16:52 14° WNW 18:18:55 10° NW visible
25 Jan 5.5 17:57:14 10° WSW 17:59:48 18° WNW 18:02:23 10° NNW visible
